Flag for Germany Weather past 2 weeks in Radebeul, Saxony, Germany

Now
74 °F

Passing clouds.


Feels Like: 77 °F
Forecast: 73 / 94 °F
Wind: 5 mph from Southeast

Location: Dresden-Klotzsche

Current Time: Jul 4, 2015 at 4:23:59 AM

Latest Report: Jul 4, 2015 at 4:00 AM


Visibility: 22 mi

Pressure: 30.19 "Hg

Humidity: 49%

Dew point: 54 °F

Location of RadebeulLocation

Historic Weather in Radebeul — Graph

°F

Radebeul temperature yesterday

Maximum temperature yesterday: 90 °F (at 6:00 PM)
Minimum temperature yesterday: 69 °F (at 1:00 AM)
Average temperature yesterday: 80 °F

Past Weeks' High & Low Weather Summary

 TemperatureHumidityPressure
High90 °F (Jul 3, 6:00 PM)96% (Jun 23, 3:00 AM)30.25 "Hg (Jun 23, 3:00 AM)
Low48 °F (Jun 25, 6:00 AM)30% (Jul 2, 3:00 PM)29.65 "Hg (Jun 23, 6:00 AM)
Average63 °F68%30.07 "Hg
* Reported Jun 19 2:00 AM — Jul 4 2:00 AM, Radebeul, Weather by CustomWeather, © 2015

Note: Actual official high and low records may vary slightly from our data, if they occured in-between our weather recording intervals... More about our weather records

Advertising

Radebeul weather history for previous 24 hours

 ConditionsComfort  
Time TempWeatherWind HumidityBarometerVisibility
2:00 AM
Sat, Jul 4
74 °FPassing clouds.5 mph56%30.21 "Hg19 mi
1:00 AM76 °FPassing clouds.5 mph53%30.21 "Hg16 mi
12:00 AM77 °FPassing clouds.5 mph55%30.22 "Hg16 mi
10:00 PM
Fri, Jul 3
82 °FPassing clouds.3 mph45%30.21 "Hg19 mi
9:00 PM84 °FScattered clouds.3 mph42%30.20 "Hg19 mi
8:00 PM88 °FPassing clouds.5 mph35%30.19 "Hg22 mi
7:00 PM89 °FPassing clouds.3 mph32%30.18 "Hg28 mi
6:00 PM90 °FPassing clouds.2 mph30%30.19 "Hg28 mi
4:00 PM90 °FPassing clouds.3 mph30%30.20 "Hg31 mi
3:00 PM90 °FPassing clouds.2 mph30%30.21 "Hg31 mi
2:00 PM89 °FPassing clouds.3 mph30%30.22 "Hg34 mi
1:00 PM88 °FPassing clouds.3 mph32%30.24 "Hg34 mi
12:00 PM85 °FSunny.3 mph33%30.25 "Hg34 mi
10:00 AM79 °FSunny.6 mph41%30.25 "Hg34 mi
9:00 AM78 °FSunny.7 mph44%30.25 "Hg34 mi
8:00 AM74 °FSunny.7 mph48%30.24 "Hg31 mi
7:00 AM71 °FSunny.7 mph52%30.24 "Hg31 mi
4:00 AM69 °FClear.7 mph55%30.24 "Hg37 mi
Weather by CustomWeather, © 2015

See weather overviewHow to use our weather pages